Location: Del Amo
(33.8464°N, 118.2104°W)
Time: 08:02:50
(UTC+00:00)

Vanguard 3 - Pass Details

Date: 22 September 2024
Orbit: 507 x 3223 km, 33.3° (Epoch: 09 October)

Event Time Altitude Azimuth Distance (km) Brightness Sun altitude
Rises 11:27:38 0° 228° (SW) 5,257 - -28.0°
Reaches altitude 10° 11:30:40 10° 223° (SW) 4,570 - -27.4°
Exits shadow 11:35:10 28° 214° (SW) 3,723 10.0 -26.5°
Maximum altitude 11:44:17 58° 149° (SSE) 3,171 10.0 -24.7°
Drops below altitude 10° 12:03:14 10° 77° (ENE) 6,150 12.8 -21.0°
Sets 12:08:03 0° 74° (ENE) 7,111 13.6 -20.0°
